| time (UTC) | temp F | wind direction | speed knots | gust knots | rain 1hr in | rain 24hr in | rain mn in | humidity % | barometer mb |
| 20260510191555 | 56 | 0.0 | 0.0 | 0.00 | 0.09 | 0.01 | 72 | 1012.5 | |
| 20260510190056 | 55 | 0.0 | 0.0 | 0.00 | 0.09 | 0.01 | 74 | 1012.6 | |
| 20260510184602 | 55 | 0.0 | 0.0 | 0.00 | 0.21 | 0.01 | 77 | 1012.7 | |
| 20260510183056 | 55 | 0.0 | 0.0 | 0.00 | 0.21 | 0.01 | 77 | 1012.8 | |
| 20260510181556 | 55 | 0.0 | 0.0 | 0.00 | 0.21 | 0.01 | 77 | 1012.5 | |
| 20260510180059 | 56 | 0.0 | 0.0 | 0.00 | 0.21 | 0.01 | 76 | 1012.4 | |
| 20260510174604 | 56 | 0.0 | 0.0 | 0.00 | 0.30 | 0.01 | 76 | 1012.2 | |
| 20260510173102 | 55 | 0.0 | 0.0 | 0.00 | 0.30 | 0.01 | 78 | 1012.2 | |
| 20260510171559 | 56 | 0.0 | 0.0 | 0.00 | 0.30 | 0.01 | 79 | 1012.2 | |
| 20260510170059 | 54 | 0.0 | 0.0 | 0.00 | 0.30 | 0.01 | 79 | 1012.3 | |
| 20260510164611 | 53 | 0.0 | 0.0 | 0.00 | 0.40 | 0.01 | 80 | 1012.5 | |
| 20260510163059 | 53 | 0.0 | 0.0 | 0.00 | 0.40 | 0.01 | 79 | 1012.5 | |
| 20260510161610 | 54 | 0.0 | 0.0 | 0.00 | 0.40 | 0.01 | 78 | 1012.3 | |
| 20260510160101 | 55 | 0.0 | 0.0 | 0.00 | 0.40 | 0.01 | 76 | 1012.2 | |
| 20260510154604 | 57 | 0.0 | 0.0 | 0.00 | 0.52 | 0.01 | 73 | 1012.1 | |
| 20260510153100 | 58 | 0.0 | 0.0 | 0.00 | 0.52 | 0.01 | 71 | 1011.9 | |
| 20260510151557 | 58 | 0.0 | 0.0 | 0.00 | 0.52 | 0.01 | 71 | 1011.8 | |
| 20260510150124 | 57 | 0.0 | 0.0 | 0.00 | 0.52 | 0.01 | 71 | 1011.4 | |
| 20260510144619 | 58 | 0.0 | 0.0 | 0.00 | 0.60 | 0.01 | 72 | 1011.3 | |
| 20260510143058 | 58 | 0.0 | 0.0 | 0.00 | 0.60 | 0.01 | 73 | 1011.1 | |
| 20260510141603 | 58 | 0.0 | 0.0 | 0.00 | 0.60 | 0.01 | 77 | 1011.1 | |
| 20260510140055 | 58 | 0.0 | 0.0 | 0.00 | 0.60 | 0.01 | 71 | 1010.9 | |
| 20260510134608 | 57 | 0.0 | 0.0 | 0.00 | 0.68 | 0.01 | 74 | 1010.8 | |
| 20260510133054 | 55 | 0.0 | 0.0 | 0.00 | 0.68 | 0.01 | 80 | 1010.9 | |
| 20260510131555 | 55 | 0.0 | 0.0 | 0.00 | 0.68 | 0.01 | 78 | 1011.1 | |
| 20260510130056 | 55 | 0.0 | 0.0 | 0.00 | 0.68 | 0.01 | 81 | 1011.1 | |
| 20260510124553 | 53 | 0.0 | 0.0 | 0.00 | 0.71 | 0.01 | 87 | 1011.1 | |
| 20260510123056 | 49 | 0.0 | 0.0 | 0.00 | 0.71 | 0.01 | 96 | 1010.8 | |
| 20260510121557 | 49 | 0.0 | 0.0 | 0.00 | 0.71 | 0.01 | 94 | 1011.0 | |
| 20260510120055 | 48 | 0.0 | 0.0 | 0.00 | 0.71 | 0.01 | 97 | 1010.9 | |
| 20260510114612 | 47 | 0.0 | 0.0 | 0.00 | 0.71 | 0.01 | 97 | 1010.9 | |
| 20260510113059 | 46 | 0.0 | 0.0 | 0.00 | 0.71 | 0.01 | 97 | 1011.0 | |
| 20260510111557 | 46 | 0.0 | 0.0 | 0.00 | 0.71 | 0.01 | 97 | 1011.0 | |
| 20260510110058 | 45 | 0.0 | 0.0 | 0.00 | 0.71 | 0.01 | 98 | 1010.5 | |
| 20260510104606 | 45 | 0.0 | 0.0 | 0.00 | 0.71 | 0.01 | 98 | 1010.2 | |
| 20260510103058 | 44 | 0.0 | 0.0 | 0.00 | 0.71 | 0.01 | 97 | 1009.9 | |
| 20260510101605 | 44 | 0.0 | 0.0 | 0.00 | 0.71 | 0.01 | 97 | 1009.9 | |
| 20260510094606 | 45 | 0.0 | 0.0 | 0.00 | 0.71 | 0.01 | 97 | 1009.2 | |
| 20260510093104 | 45 | 0.0 | 0.0 | 0.00 | 0.71 | 0.01 | 97 | 1009.2 | |
| 20260510091558 | 45 | 0.0 | 0.0 | 0.00 | 0.71 | 0.01 | 97 | 1009.2 | |
| 20260510090059 | 45 | 0.0 | 0.0 | 0.00 | 0.71 | 0.01 | 97 | 1009.0 | |
| 20260510084556 | 46 | 0.0 | 0.0 | 0.01 | 0.71 | 0.01 | 97 | 1009.0 | |
| 20260510083102 | 46 | 0.0 | 0.0 | 0.01 | 0.71 | 0.01 | 98 | 1009.1 | |
| 20260510081601 | 46 | 0.0 | 0.0 | 0.01 | 0.71 | 0.01 | 98 | 1009.7 | |
| 20260510074608 | 46 | 0.0 | 0.0 | 0.00 | 0.70 | 0.00 | 98 | 1009.6 | |
| 20260510073059 | 45 | 0.0 | 0.0 | 0.00 | 0.70 | 0.00 | 98 | 1009.8 | |
| 20260510071603 | 45 | 0.0 | 0.0 | 0.00 | 0.70 | 0.00 | 98 | 1009.6 | |
| 20260510070108 | 45 | 0.0 | 0.0 | 0.00 | 0.70 | 0.00 | 98 | 1009.4 | |
| 20260510064602 | 44 | 0.0 | 0.0 | 0.00 | 0.70 | 0.00 | 98 | 1009.3 | |
| 20260510063108 | 43 | 0.0 | 0.0 | 0.00 | 0.70 | 0.00 | 98 | 1009.4 | |
| 20260510061559 | 43 | 0.0 | 0.0 | 0.00 | 0.70 | 0.00 | 97 | 1009.7 | |
| 20260510054605 | 44 | 0.0 | 0.0 | 0.00 | 0.70 | 0.00 | 98 | 1009.6 | |
| 20260510053055 | 45 | 0.0 | 0.0 | 0.00 | 0.70 | 0.00 | 98 | 1009.6 | |
| 20260510051604 | 45 | 0.0 | 0.0 | 0.00 | 0.70 | 0.00 | 98 | 1009.7 | |
| 20260510050055 | 45 | 0.0 | 0.0 | 0.00 | 0.70 | 0.00 | 98 | 1009.6 | |
| 20260510044606 | 45 | 0.0 | 0.0 | 0.00 | 0.70 | 0.00 | 98 | 1009.8 | |
| 20260510043059 | 45 | 0.0 | 0.0 | 0.00 | 0.70 | 0.00 | 98 | 1009.8 | |
| 20260510041559 | 44 | 0.0 | 0.0 | 0.00 | 0.70 | 0.00 | 98 | 1009.9 | |
| 20260510040058 | 44 | 0.0 | 0.0 | 0.00 | 0.70 | 0.00 | 98 | 1009.8 | |
| 20260510034553 | 44 | 0.0 | 0.0 | 0.00 | 0.70 | 0.70 | 98 | 1010.1 | |
| 20260510033121 | 44 | 0.0 | 0.0 | 0.00 | 0.70 | 0.70 | 98 | 1010.0 | |
| 20260510031619 | 44 | 0.0 | 0.0 | 0.00 | 0.70 | 0.70 | 97 | 1010.1 | |
| 20260510024556 | 44 | 0.0 | 0.0 | 0.00 | 0.70 | 0.70 | 97 | 1009.9 | |
| 20260510023056 | 44 | 0.0 | 0.0 | 0.00 | 0.70 | 0.70 | 97 | 1010.1 | |
| 20260510021556 | 44 | 0.0 | 0.0 | 0.00 | 0.70 | 0.70 | 97 | 1010.1 | |
| 20260510020054 | 44 | 0.0 | 0.0 | 0.00 | 0.70 | 0.70 | 97 | 1010.3 | |
| 20260510014607 | 44 | 0.0 | 0.0 | 0.00 | 0.70 | 0.70 | 97 | 1010.4 | |
| 20260510013054 | 44 | 0.0 | 0.0 | 0.00 | 0.70 | 0.70 | 97 | 1010.2 | |
| 20260510011559 | 44 | 0.0 | 0.0 | 0.00 | 0.70 | 0.70 | 97 | 1010.3 | |
| 20260510004600 | 44 | 0.0 | 0.0 | 0.00 | 0.70 | 0.70 | 97 | 1010.0 | |
| 20260510003103 | 44 | 0.0 | 0.0 | 0.00 | 0.70 | 0.70 | 97 | 1009.9 | |
| 20260510001554 | 44 | 0.0 | 0.0 | 0.00 | 0.70 | 0.70 | 97 | 1009.6 | |
| 20260510000056 | 44 | 0.0 | 0.0 | 0.00 | 0.70 | 0.70 | 97 | 1009.4 | |
| 20260509234607 | 44 | 0.0 | 0.0 | 0.00 | 0.70 | 0.70 | 97 | 1009.4 | |
| 20260509233055 | 44 | 0.0 | 0.0 | 0.00 | 0.70 | 0.70 | 97 | 1009.3 | |
| 20260509231557 | 44 | 0.0 | 0.0 | 0.00 | 0.70 | 0.70 | 97 | 1009.4 | |
| 20260509230055 | 44 | 0.0 | 0.0 | 0.00 | 0.70 | 0.70 | 97 | 1009.3 | |
| 20260509224556 | 44 | 0.0 | 0.0 | 0.00 | 0.70 | 0.70 | 97 | 1009.3 | |
| 20260509223100 | 43 | 0.0 | 0.0 | 0.00 | 0.70 | 0.70 | 97 | 1009.3 | |
| 20260509221558 | 43 | 0.0 | 0.0 | 0.00 | 0.70 | 0.70 | 97 | 1009.3 | |
| 20260509214557 | 43 | 0.0 | 0.0 | 0.01 | 0.70 | 0.70 | 96 | 1009.4 | |
| 20260509213058 | 43 | 0.0 | 0.0 | 0.01 | 0.70 | 0.70 | 96 | 1009.6 | |
| 20260509211557 | 42 | 0.0 | 0.0 | 0.02 | 0.70 | 0.70 | 96 | 1009.6 | |
| 20260509210059 | 42 | 0.0 | 0.0 | 0.03 | 0.70 | 0.70 | 96 | 1009.7 | |
| 20260509204559 | 42 | 0.0 | 0.0 | 0.03 | 0.69 | 0.69 | 96 | 1009.9 | |
| 20260509203054 | 42 | 0.0 | 0.0 | 0.05 | 0.69 | 0.69 | 96 | 1010.0 | |
| 20260509201553 | 42 | 0.0 | 0.0 | 0.05 | 0.68 | 0.68 | 96 | 1010.1 | |
| 20260509200056 | 42 | 0.0 | 0.0 | 0.05 | 0.67 | 0.67 | 96 | 1010.1 | |
| 20260509194557 | 41 | 0.0 | 0.0 | 0.07 | 0.66 | 0.66 | 96 | 1010.1 | |
| 20260509193059 | 41 | 0.0 | 0.0 | 0.09 | 0.64 | 0.64 | 96 | 1010.1 |